CST,Max TemperatureF,Mean TemperatureF,Min TemperatureF,Max Dew PointF,MeanDew PointF,Min DewpointF,Max Humidity, Mean Humidity, Min Humidity, Max Sea Level PressureIn, Mean Sea Level PressureIn, Min Sea Level PressureIn, Max VisibilityMiles, Mean VisibilityMiles, Min VisibilityMiles, Max Wind SpeedMPH, Mean Wind SpeedMPH, Max Gust SpeedMPH,PrecipitationIn, CloudCover, Events, WindDirDegrees
2014-1-1,70,52,33,36,31,22,79,51,22,30.30,30.03,29.87,10,10,10,29,15,37,0.00,0,,219
2014-1-2,44,34,24,22,18,16,75,54,33,30.54,30.44,30.33,10,10,10,24,10,30,0.00,0,,1
2014-1-3,59,44,28,25,20,14,69,46,23,30.39,30.14,29.91,10,10,10,32,17,41,0.00,0,,178
2014-1-4,72,54,36,38,33,19,76,51,25,29.88,29.79,29.68,10,10,10,35,18,43,0.00,0,,213
2014-1-5,39,29,19,25,14,4,72,50,27,30.55,30.22,29.91,10,10,10,30,16,36,0.00,2,,357
2014-1-6,31,21,11,5,3,0,66,49,31,30.76,30.64,30.55,10,10,10,16,5,22,0.00,0,,341
2014-1-7,49,34,19,22,14,5,62,46,29,30.53,30.34,30.16,10,10,10,25,12,32,0.00,0,,193
2014-1-8,59,47,35,38,34,22,82,63,43,30.15,30.07,29.98,10,10,9,29,14,38,0.00,3,,190
2014-1-9,60,45,29,47,35,23,100,74,47,30.20,30.09,29.90,10,6,0,20,5,25,0.00,3,Fog,327
2014-1-10,72,56,40,52,40,16,89,51,12,29.90,29.81,29.67,10,10,6,25,14,32,T,4,Rain,206
2014-1-11,69,49,29,28,23,15,78,46,13,30.17,30.05,29.88,10,10,10,15,5,18,0.00,0,,195
2014-1-12,77,63,48,40,32,21,46,34,21,29.98,29.83,29.71,10,10,10,37,19,49,0.00,0,,197
2014-1-13,62,51,39,28,18,10,51,33,14,30.13,30.05,29.82,10,10,10,26,12,37,0.00,0,,294
2014-1-14,64,50,36,31,18,11,41,32,22,30.41,30.16,29.99,10,10,10,29,11,37,0.00,1,,329
2014-1-15,61,43,25,21,19,14,74,47,20,30.45,30.28,30.04,10,10,10,17,7,23,0.00,0,,247
2014-1-16,64,49,33,25,22,20,59,40,20,30.26,30.11,29.98,10,10,10,22,8,30,0.00,0,,3
2014-1-17,57,43,29,22,17,12,63,41,18,30.39,30.28,30.17,10,10,2,10,3,16,0.00,1,,159
2014-1-18,70,53,36,27,22,17,45,33,20,30.23,30.13,30.05,10,10,10,17,8,22,0.00,0,,222
2014-1-19,69,50,30,27,21,15,63,39,14,30.31,30.17,29.99,10,10,10,17,8,22,0.00,0,,193
2014-1-20,72,57,42,34,24,16,56,34,12,30.32,30.00,29.88,10,10,10,30,14,38,0.00,0,,303
2014-1-21,57,44,31,20,18,15,49,35,21,30.49,30.32,30.14,10,10,10,15,7,18,0.00,0,,298
2014-1-22,64,52,39,25,18,14,49,33,17,30.12,30.04,29.94,10,10,10,14,6,18,0.00,0,,72
2014-1-23,41,31,20,20,4,-10,52,37,22,30.72,30.47,30.11,10,10,10,24,15,36,0.00,4,,20
2014-1-24,46,30,14,14,0,-8,44,29,13,30.77,30.52,30.24,10,10,10,16,9,22,0.00,1,,251
2014-1-25,66,56,46,27,18,11,47,33,19,30.22,30.12,29.95,10,10,10,10,5,13,0.00,1,,184
2014-1-26,72,55,38,25,18,13,38,25,11,29.92,29.77,29.65,10,10,10,21,10,25,0.00,1,,229
2014-1-27,27,23,18,25,1,-10,54,37,20,30.32,30.20,29.85,10,10,9,24,14,36,0.00,0,,13
2014-1-28,33,22,10,5,-3,-9,49,37,25,30.53,30.43,30.30,10,10,10,20,10,24,0.00,0,,8
2014-1-29,48,31,13,10,4,1,61,38,15,30.45,30.26,30.03,10,10,7,25,13,33,0.00,0,,181
2014-1-30,69,52,35,36,23,9,48,34,20,30.00,29.81,29.70,10,10,5,37,23,49,0.00,0,,195
2014-1-31,83,62,41,40,35,28,66,41,16,29.80,29.74,29.68,10,10,3,28,12,37,0.00,0,,223